Weather History for Debrecen, Hungary

Change the Weather History Date:

Tuesday, November 6, 2012

  Actual Average Record
Temperature  
Mean Temperature 46 °F -  
Max Temperature 55 °F 45 °F - ()
Min Temperature 37 °F 33 °F - ()
Degree Days  
Heating Degree Days 19    
Moisture  
Dew Point 40 °F    
Average Humidity 75    
Maximum Humidity 100    
Minimum Humidity 46    
Precipitation  
Precipitation 0.00 in 0.06 in - ()
Sea Level Pressure  
Sea Level Pressure 29.91 in    
Wind  
Wind Speed 9 mph ()    
Max Wind Speed 16 mph    
Max Gust Speed -    
Visibility 7.2 miles    
Events      
T = Trace of Precipitation, MM = Missing Value Source: Averaged Metar Reports

Daily Weather History Graph

Daily Weather History Graph

Search for Another Location

Airport:

Trip Planner

Search our weather history database for the weather conditions in past years. The results will help you decide how hot, cold, wet, or windy it might be!

Date:

Astronomy

Nov. 06, 2012 Rise Set
Actual Time 6:25 AM CET 4:08 PM CET
Civil Twilight 5:52 AM CET 4:41 PM CET
Nautical Twilight 5:15 AM CET 5:17 PM CET
Astronomical Twilight 4:39 AM CET 5:53 PM CET
Moon 10:32 PM CET (11/6) 12:05 PM CET (11/6)
Length of Visible Light 10h 48m
Length of Day
9h 43m
Waning Gibbous, 56% of the Moon is Illuminated
Nov 6
Waning Gibbous
Nov 7
Last Quarter
Nov 13
New
Nov 20
First Quarter
Nov 28
Full

Hourly Weather History & Observations

Time (CET) Temp. Windchill Dew Point Humidity Pressure Visibility Wind Dir Wind Speed Gust Speed Precip Events Conditions
1:00 AM 46 °F - 44 °F 90% 29.77 in - WSW 6.7 mph - -  
5:15 AM 39.2 °F 35.0 °F 37.4 °F 93% 29.83 in - SW 5.8 mph - N/A   Clear
5:45 AM 39.2 °F 34.2 °F 37.4 °F 93% 29.83 in - SW 6.9 mph - N/A   Clear
6:00 AM - - - N/A% - 6.2 mi SW 8.1 mph - N/A   Clear
6:15 AM 37.4 °F 32.1 °F 37.4 °F 100% 29.86 in - SSW 6.9 mph - N/A   Clear
6:45 AM 37.4 °F 32.8 °F 37.4 °F 100% 29.86 in - South 5.8 mph - N/A   Clear
7:00 AM 38 °F - 37 °F 95% 29.87 in 12 mi South 6.7 mph - -   Partly Cloudy
7:15 AM 39.2 °F 35.0 °F 37.4 °F 93% 29.86 in - South 5.8 mph - N/A   Clear
7:45 AM 41.0 °F 36.4 °F 39.2 °F 93% 29.89 in - South 6.9 mph - N/A   Clear
8:15 AM 42.8 °F 38.0 °F 41.0 °F 93% 29.89 in - SSW 8.1 mph - N/A   Clear
8:45 AM 46.4 °F 41.5 °F 42.8 °F 87% 29.89 in - SW 10.4 mph - N/A   Clear
9:03 AM - - - N/A% - - SW 11.5 mph - N/A   Clear
9:15 AM 48.2 °F - 42.8 °F 82% 29.89 in - WSW 13.8 mph - N/A   Clear
9:45 AM 48.2 °F - 42.8 °F 82% 29.92 in 6.2 mi West 15.0 mph - N/A   Partly Cloudy
10:15 AM 50.0 °F - 42.8 °F 76% 29.92 in 6.2 mi West 16.1 mph - N/A   Partly Cloudy
10:45 AM 50.0 °F - 42.8 °F 76% 29.92 in 6.2 mi West 16.1 mph - N/A   Partly Cloudy
11:15 AM 51.8 °F - 42.8 °F 71% 29.92 in 6.2 mi West 15.0 mph - N/A   Partly Cloudy
11:45 AM 53.6 °F - 39.2 °F 58% 29.92 in 6.2 mi WSW 15.0 mph - N/A   Partly Cloudy
12:00 PM - - - N/A% - 6.2 mi WSW 11.5 mph - N/A   Scattered Clouds
12:15 PM 53.6 °F - 39.2 °F 58% 29.92 in 6.2 mi West 16.1 mph - N/A   Partly Cloudy
12:45 PM 55.4 °F - 39.2 °F 54% 29.92 in 6.2 mi WSW 16.1 mph - N/A   Partly Cloudy
1:00 PM 54 °F - 39 °F 46% 29.93 in 19 mi WSW 15.7 mph - -   Partly Cloudy
1:15 PM 53.6 °F - 37.4 °F 54% 29.92 in 6.2 mi West 15.0 mph - N/A   Partly Cloudy
1:45 PM 53.6 °F - 41.0 °F 62% 29.95 in 6.2 mi West 12.7 mph - N/A   Scattered Clouds
2:15 PM 53.6 °F - 39.2 °F 58% 29.95 in 6.2 mi West 12.7 mph - N/A   Scattered Clouds
2:45 PM 53.6 °F - 41.0 °F 62% 29.95 in 6.2 mi WSW 9.2 mph - N/A   Mostly Cloudy
3:15 PM 51.8 °F - 41.0 °F 67% 29.95 in 6.2 mi WSW 6.9 mph - N/A   Mostly Cloudy
3:45 PM 51.8 °F - 39.2 °F 62% 29.95 in 6.2 mi WSW 12.7 mph - N/A   Mostly Cloudy
4:15 PM 50.0 °F - 39.2 °F 66% 29.95 in 6.2 mi WSW 11.5 mph - N/A   Mostly Cloudy
4:45 PM 50.0 °F - 37.4 °F 62% 29.95 in 6.2 mi WSW 12.7 mph - N/A   Mostly Cloudy
5:00 PM - - - N/A% - - North - - N/A   Unknown
7:00 PM 48 °F - 38 °F 60% 30.00 in - WSW 13.4 mph - -